PBO Station Position Time Series. Reference Frame : NAM14
Format Version,1.1.1
4-character ID,AGNS
Station name,AgnessRR__OR2021
Begin Date, 2021-06-18
End Date, 2023-06-26
Release Date, 2023-06-27
Reference position, 42.5527661980 North Latitude, -124.0591118764 East Longitude, 51.35935 meters elevation,
Date, North (mm), East (mm), Vertical (mm), North Std. Deviation (mm), East Std. Deviation (mm),              Vertical Std. Deviation (mm), Quality,
2021-06-18,0.00, 0.00, 0.00, 1.96, 1.48, 7.18, suppf,
2021-06-19,0.52, 0.86, 0.75, 1.95, 1.47, 7.09, suppf,
2021-06-20,-2.82, 0.97, 6.40, 1.95, 1.48, 7.15, suppf,
2021-06-21,-2.65, -0.64, -1.72, 1.96, 1.48, 7.17, suppf,
2021-06-22,-4.20, 1.87, 8.74, 1.98, 1.49, 7.18, suppf,
2021-06-23,-2.68, 2.08, 1.90, 1.95, 1.47, 6.99, suppf,
2021-06-24,-3.89, -0.59, 3.54, 2.00, 1.52, 7.32, suppf,
2021-06-25,-3.25, 0.95, -2.24, 2.00, 1.50, 7.27, suppf,
2021-06-26,-2.62, 1.47, 1.33, 1.98, 1.48, 7.10, suppf,
2021-06-27,-3.20, 1.25, 2.83, 1.99, 1.50, 7.20, suppf,
2021-06-28,-3.31, 1.72, 6.38, 1.95, 1.48, 7.01, suppf,
2021-06-29,-4.75, 1.29, 6.48, 1.96, 1.48, 7.06, suppf,
2021-06-30,-1.75, 1.30, -0.63, 1.95, 1.47, 7.04, suppf,
2021-07-01,-2.54, 2.82, 3.02, 1.99, 1.52, 7.23, suppf,
2021-07-02,-1.61, 2.94, 3.67, 1.98, 1.51, 7.17, suppf,
2021-07-03,-3.03, 2.20, 3.00, 1.99, 1.48, 7.15, suppf,
2021-07-04,-3.24, 1.76, 4.56, 1.97, 1.50, 7.19, suppf,
2021-07-05,-1.06, 3.65, -2.53, 1.97, 1.49, 7.15, suppf,
2021-07-06,-2.60, 1.65, 8.62, 1.97, 1.49, 7.13, suppf,
2021-07-07,-2.42, 0.67, 1.82, 1.98, 1.48, 7.13, suppf,
2021-07-08,-2.82, 2.97, -1.79, 1.95, 1.46, 6.98, suppf,
2021-07-09,-3.09, 1.83, 3.39, 2.00, 1.52, 7.23, suppf,
2021-07-10,-2.42, 3.12, 1.12, 1.96, 1.49, 7.12, suppf,
2021-07-11,-0.14, 0.86, 7.49, 1.96, 1.49, 7.12, suppf,
2021-07-12,1.53, 0.97, -6.31, 1.95, 1.48, 7.06, suppf,
2021-07-13,2.93, 0.04, 0.27, 1.98, 1.50, 7.14, suppf,
2021-07-14,-1.16, 0.50, 5.02, 1.96, 1.49, 7.10, suppf,
2021-07-15,-1.35, 2.20, -5.37, 1.99, 1.52, 7.24, suppf,
2021-07-16,-0.07, 1.41, 4.63, 2.12, 1.60, 7.71, suppf,
2021-07-17,-1.87, 1.89, -5.94, 2.04, 1.52, 7.40, suppf,
2021-07-18,-2.50, 0.98, -3.20, 2.03, 1.50, 7.29, suppf,
2021-07-19,-2.58, 1.82, -2.36, 1.96, 1.48, 7.07, suppf,
2021-07-20,-2.34, 1.34, -3.11, 1.97, 1.52, 7.25, suppf,
2021-07-21,-2.13, 2.42, 1.32, 1.95, 1.49, 7.09, suppf,
2021-07-22,-2.19, 1.15, 5.52, 1.97, 1.53, 7.22, suppf,
2021-07-23,-1.30, 3.03, 5.70, 1.99, 1.52, 7.21, suppf,
2021-07-24,-2.11, 2.29, 7.68, 1.95, 1.48, 7.05, suppf,
2021-07-25,-1.27, 2.38, 2.43, 1.96, 1.49, 7.11, suppf,
2021-07-26,-1.32, 0.68, 3.82, 1.95, 1.49, 7.14, suppf,
2021-07-27,0.32, -0.07, -0.14, 2.00, 1.53, 7.40, suppf,
2021-07-28,-1.50, 1.72, -2.43, 2.01, 1.52, 7.38, suppf,
2021-07-29,-1.15, 2.56, -11.46, 1.98, 1.51, 7.21, suppf,
2021-07-30,-1.27, 2.72, 1.79, 2.05, 1.54, 7.33, suppf,
2021-07-31,-2.14, 0.71, 0.35, 2.03, 1.56, 7.51, suppf,
2021-08-01,-2.82, 2.09, -6.57, 1.96, 1.50, 7.16, suppf,
2021-08-02,-1.61, -0.17, -2.49, 1.97, 1.52, 7.24, suppf,
2021-08-03,-2.62, 0.54, -3.10, 1.95, 1.49, 7.10, suppf,
2021-08-04,-3.47, 0.89, 0.14, 1.98, 1.50, 7.16, suppf,
2021-08-05,-2.89, 2.08, -1.58, 1.98, 1.50, 7.23, suppf,
2021-08-06,-3.00, 1.13, -1.05, 2.03, 1.51, 7.32, suppf,
2021-08-07,-3.35, 2.06, 4.38, 1.95, 1.48, 7.04, suppf,
2021-08-08,-4.29, 3.39, 6.21, 1.97, 1.53, 7.33, suppf,
2021-08-09,-2.66, 2.18, 10.21, 1.97, 1.50, 7.17, suppf,
2021-08-10,-2.47, 2.55, 4.74, 1.96, 1.49, 7.10, suppf,
2021-08-11,-3.07, 1.50, 3.75, 1.95, 1.48, 7.05, suppf,
2021-08-12,-2.76, 1.91, 6.47, 1.94, 1.47, 6.99, suppf,
2021-08-13,-1.89, 1.27, 4.46, 1.93, 1.47, 6.97, suppf,
2021-08-14,-2.73, 2.56, 1.92, 2.01, 1.50, 7.21, suppf,
2021-08-15,-2.65, 0.83, 3.94, 1.95, 1.48, 7.02, suppf,
2021-08-16,-2.25, 0.02, 0.86, 1.99, 1.52, 7.30, suppf,
2021-08-17,-1.47, 2.59, 11.45, 2.00, 1.53, 7.40, suppf,
2021-08-18,-8.63, -1.48, 6.40, 1.97, 1.50, 7.20, suppf,
2021-08-19,-4.04, -0.24, -2.29, 2.00, 1.52, 7.32, suppf,
2021-08-20,0.25, 2.76, 2.52, 2.03, 1.59, 7.59, suppf,
2021-08-21,-0.87, 1.95, 11.63, 2.01, 1.57, 7.50, suppf,
2021-08-22,-3.11, 1.91, 6.22, 1.96, 1.51, 7.14, suppf,
2021-08-23,-2.94, 1.94, 12.15, 1.97, 1.52, 7.18, suppf,
2021-08-24,-1.60, 1.25, -0.26, 1.96, 1.48, 7.04, suppf,
2021-08-25,-3.75, 1.72, 2.71, 1.96, 1.48, 7.07, suppf,
2021-08-26,-2.88, 0.79, 2.29, 1.94, 1.48, 7.04, suppf,
2021-08-27,-0.09, 1.36, 4.16, 1.96, 1.49, 7.13, suppf,
2021-08-28,-1.47, -0.22, 5.23, 1.95, 1.49, 7.12, suppf,
2021-08-29,-3.38, 0.54, 2.71, 1.96, 1.48, 7.08, suppf,
2021-08-30,-2.87, 1.12, 10.19, 1.97, 1.49, 7.10, suppf,
2021-08-31,-2.42, 0.53, 14.40, 1.95, 1.47, 7.01, suppf,
2021-09-01,-0.73, 0.50, 10.05, 1.93, 1.48, 7.01, suppf,
2021-09-02,-2.02, 1.09, 9.32, 1.96, 1.51, 7.15, suppf,
2021-09-03,-3.61, 1.94, 6.11, 2.03, 1.55, 7.36, suppf,
2021-09-04,-1.66, 0.56, 1.05, 2.08, 1.53, 7.41, suppf,
2021-09-05,-2.56, -0.47, -0.07, 2.03, 1.50, 7.27, suppf,
2021-09-06,-2.63, 0.07, 7.71, 1.95, 1.48, 7.03, suppf,
2021-09-07,-2.96, 0.36, 5.97, 1.94, 1.49, 7.08, suppf,
2021-09-08,-0.96, 1.05, 8.38, 2.02, 1.58, 7.66, suppf,
2021-09-09,-3.63, 1.97, 14.98, 1.96, 1.49, 7.11, suppf,
2021-09-10,-3.29, 0.53, 4.90, 1.99, 1.51, 7.28, suppf,
2021-09-11,-1.84, 0.30, 3.12, 1.95, 1.49, 7.07, suppf,
2021-09-12,-1.84, 0.67, 8.71, 1.95, 1.49, 7.06, suppf,
2021-09-13,-2.02, 0.41, 11.19, 1.95, 1.49, 7.07, suppf,
2021-09-14,-2.06, 0.72, 9.22, 1.95, 1.48, 7.03, suppf,
2021-09-15,-1.42, -1.22, 5.45, 1.98, 1.51, 7.20, suppf,
2021-09-16,-1.78, 0.32, 15.86, 1.96, 1.48, 7.09, suppf,
2021-09-17,-1.70, 0.95, 5.49, 1.97, 1.51, 7.22, suppf,
2021-09-18,-4.49, -3.26, 3.64, 2.01, 1.51, 7.30, suppf,
2021-09-19,-4.12, 1.33, 5.30, 1.98, 1.50, 7.24, suppf,
2021-09-20,-1.78, 1.60, 9.35, 1.96, 1.48, 7.08, suppf,
2021-09-21,-2.33, 1.52, 3.49, 1.95, 1.47, 7.02, suppf,
2021-09-22,-2.83, 1.49, 1.49, 1.97, 1.51, 7.21, suppf,
2021-09-23,-0.89, 2.37, 7.77, 1.96, 1.49, 7.12, suppf,
2021-09-24,-2.31, 0.53, -0.52, 2.05, 1.56, 7.44, suppf,
2021-09-25,-2.03, 1.16, 5.32, 1.96, 1.48, 7.09, suppf,
2021-09-26,-2.55, -0.05, 13.17, 1.97, 1.49, 7.12, suppf,
2021-09-27,-4.79, -0.03, 7.47, 1.99, 1.52, 7.31, suppf,
2021-09-28,-2.89, -0.11, 8.37, 1.96, 1.49, 7.11, suppf,
2021-09-29,-2.32, 1.28, 9.55, 1.94, 1.49, 7.11, suppf,
2021-09-30,-2.79, 0.45, 10.53, 1.98, 1.51, 7.21, suppf,
2021-10-01,-0.38, 2.03, 12.92, 1.98, 1.50, 7.22, suppf,
2021-10-02,-2.15, 1.09, 8.73, 1.95, 1.48, 7.09, suppf,
2021-10-03,-3.36, 3.42, 14.07, 1.98, 1.50, 7.22, suppf,
2021-10-04,-3.42, 0.23, 5.42, 1.96, 1.48, 7.11, suppf,
2021-10-05,-0.70, 1.59, 4.93, 2.05, 1.56, 7.67, suppf,
2021-10-06,-2.35, 0.81, 10.24, 1.97, 1.50, 7.22, suppf,
2021-10-07,-0.99, 0.36, 8.76, 1.97, 1.49, 7.15, suppf,
2021-10-08,-2.28, 1.00, 0.54, 1.96, 1.48, 7.08, suppf,
2021-10-09,-1.46, 0.74, 7.05, 1.94, 1.48, 7.03, suppf,
2021-10-10,-3.48, 1.62, 13.53, 1.96, 1.49, 7.16, suppf,
2021-10-11,-4.48, 1.43, 14.03, 1.98, 1.49, 7.17, suppf,
2021-10-12,-2.75, 0.91, 3.26, 1.97, 1.49, 7.16, suppf,
2021-10-13,-0.76, 0.79, 4.39, 1.97, 1.48, 7.12, suppf,
2021-10-14,-3.09, 1.10, 12.47, 1.94, 1.48, 7.06, suppf,
2021-10-15,-2.81, 1.04, 4.96, 1.94, 1.47, 7.01, suppf,
2021-10-16,-1.68, 0.96, 9.26, 1.95, 1.48, 7.08, suppf,
2021-10-17,-1.19, 1.35, 9.37, 1.97, 1.50, 7.18, suppf,
2021-10-18,-1.69, 0.66, 10.86, 1.96, 1.47, 7.03, suppf,
2021-10-19,-0.33, 0.45, 9.16, 1.98, 1.51, 7.26, suppf,
2021-10-20,-3.11, 0.27, 7.62, 1.99, 1.55, 7.29, suppf,
2021-10-21,2.19, -1.54, 5.05, 2.09, 1.63, 7.84, suppf,
2021-10-22,-1.49, -0.26, 2.30, 1.98, 1.49, 7.16, suppf,
2021-10-23,-1.23, 1.31, 15.35, 1.97, 1.49, 7.12, suppf,
2021-10-24,1.47, -1.69, 12.33, 2.07, 1.59, 7.72, suppf,
2021-10-25,-2.46, -1.07, 16.12, 1.97, 1.49, 7.15, suppf,
2021-10-26,-3.26, 1.94, 12.37, 1.97, 1.50, 7.18, suppf,
2021-10-27,-1.36, -0.66, 8.99, 2.03, 1.50, 7.28, suppf,
2021-10-28,-2.89, 1.23, 6.58, 2.01, 1.47, 7.14, suppf,
2021-10-29,-1.79, 1.67, 4.70, 2.01, 1.48, 7.18, suppf,
2021-10-30,-0.31, 1.73, 10.38, 2.04, 1.51, 7.36, suppf,
2021-10-31,-2.88, 2.47, 13.06, 2.02, 1.50, 7.28, suppf,
2021-11-01,-2.13, 2.05, 12.82, 2.04, 1.50, 7.31, suppf,
2021-11-02,-2.76, 1.41, 2.22, 2.03, 1.49, 7.25, suppf,
2021-11-03,0.10, 0.34, 10.21, 2.04, 1.51, 7.33, suppf,
2021-11-04,-0.76, -0.82, 13.48, 2.06, 1.53, 7.49, suppf,
2021-11-05,-4.10, 1.16, 9.15, 2.00, 1.50, 7.27, suppf,
2021-11-06,-3.28, -0.84, 11.92, 2.03, 1.51, 7.33, suppf,
2021-11-07,-1.41, 1.27, 3.30, 2.02, 1.49, 7.21, suppf,
2021-11-08,-0.87, 1.12, 2.61, 1.96, 1.47, 7.04, suppf,
2021-11-09,-2.32, -1.74, 14.16, 1.98, 1.49, 7.18, suppf,
2021-11-10,-2.46, 1.40, 1.46, 1.93, 1.48, 7.04, suppf,
2021-11-11,-1.87, 1.71, 5.74, 1.93, 1.48, 7.04, suppf,
2021-11-12,-2.66, 2.06, -0.81, 1.99, 1.52, 7.19, suppf,
2021-11-13,-2.23, 2.50, 1.71, 2.04, 1.55, 7.37, suppf,
2021-11-14,-2.00, 2.37, 4.67, 2.05, 1.55, 7.40, suppf,
2021-11-15,-2.59, 1.93, 10.92, 2.02, 1.55, 7.50, suppf,
2021-11-16,-1.03, 1.47, 4.46, 1.95, 1.50, 7.13, suppf,
2021-11-17,-2.10, 1.93, -4.51, 1.94, 1.49, 7.14, suppf,
2021-11-18,-2.06, 2.61, -7.82, 2.00, 1.55, 7.48, suppf,
2021-11-19,-1.83, 1.65, 0.44, 1.96, 1.48, 7.09, suppf,
2021-11-20,-1.83, 2.21, -0.98, 1.95, 1.47, 7.03, suppf,
2021-11-21,-3.16, 2.51, -2.50, 1.93, 1.47, 7.00, suppf,
2021-11-22,-2.44, 2.21, -3.46, 1.94, 1.48, 7.08, suppf,
2021-11-23,-1.38, 1.37, -1.77, 1.99, 1.50, 7.22, suppf,
2021-11-24,-3.18, 2.63, -0.50, 1.95, 1.48, 7.06, suppf,
2021-11-25,-2.41, 1.81, -4.86, 1.96, 1.47, 7.06, suppf,
2021-11-26,-0.34, 1.09, -8.14, 1.96, 1.49, 7.13, suppf,
2021-11-27,-1.75, 0.86, -8.25, 1.94, 1.48, 7.07, suppf,
2021-11-28,-2.11, 2.03, -5.19, 1.95, 1.48, 7.06, suppf,
2021-11-29,-2.15, 1.68, 3.81, 1.95, 1.48, 7.05, suppf,
2021-11-30,-2.99, 1.49, -2.44, 1.96, 1.49, 7.11, suppf,
2021-12-01,-2.78, 1.58, 1.65, 1.95, 1.48, 7.04, suppf,
2021-12-02,-2.07, 2.57, 1.64, 2.00, 1.50, 7.23, suppf,
2021-12-03,-1.55, 1.12, -6.26, 2.04, 1.53, 7.38, suppf,
2021-12-04,-2.34, 1.49, -4.77, 1.99, 1.49, 7.17, suppf,
2021-12-05,-1.89, 1.95, -1.44, 2.02, 1.51, 7.34, suppf,
2021-12-06,-2.20, 2.06, -4.73, 2.01, 1.51, 7.33, suppf,
2021-12-07,-2.04, 0.98, 5.94, 2.01, 1.52, 7.42, suppf,
2021-12-08,-1.70, 0.74, 5.71, 2.01, 1.52, 7.43, suppf,
2021-12-09,-1.10, 1.11, -1.86, 2.08, 1.51, 7.33, suppf,
2021-12-10,-1.40, 1.77, 4.16, 2.15, 1.53, 7.52, suppf,
2021-12-11,-1.82, 1.15, 7.07, 2.01, 1.51, 7.32, suppf,
2021-12-12,-1.44, -1.08, 9.36, 1.99, 1.50, 7.24, suppf,
2021-12-13,-1.54, 0.30, 2.40, 2.00, 1.49, 7.23, suppf,
2021-12-14,-0.55, 0.08, 2.86, 2.00, 1.50, 7.25, suppf,
2021-12-15,-0.89, 1.41, 4.81, 2.03, 1.53, 7.38, suppf,
2021-12-16,-1.66, 1.18, 6.47, 2.02, 1.54, 7.38, suppf,
2021-12-17,-2.38, 1.64, 2.43, 2.02, 1.53, 7.36, suppf,
2021-12-18,-1.81, 1.66, 2.03, 2.02, 1.53, 7.34, suppf,
2021-12-19,-3.72, 3.33, 3.75, 2.03, 1.53, 7.38, suppf,
2021-12-20,-1.96, 1.43, 15.05, 2.06, 1.55, 7.51, suppf,
2021-12-21,-1.53, 3.62, -0.27, 2.03, 1.54, 7.45, suppf,
2021-12-22,-3.06, 0.18, 5.21, 2.03, 1.54, 7.45, suppf,
2021-12-23,-0.32, -1.36, 5.84, 2.03, 1.54, 7.45, suppf,
2021-12-24,-3.09, 0.90, 4.17, 2.01, 1.52, 7.32, suppf,
2021-12-25,-2.46, 2.01, 2.99, 2.02, 1.53, 7.38, suppf,
2021-12-26,-2.65, 4.48, 1.72, 2.03, 1.54, 7.43, suppf,
2021-12-27,-0.92, 0.81, -4.48, 2.03, 1.53, 7.40, suppf,
2021-12-28,-0.92, 2.16, 3.31, 1.99, 1.49, 7.20, suppf,
2021-12-29,-1.86, 2.28, 5.51, 2.01, 1.50, 7.27, suppf,
2021-12-30,-1.87, 3.01, 3.49, 1.99, 1.48, 7.15, suppf,
2021-12-31,-0.18, 2.95, -4.20, 2.04, 1.50, 7.32, suppf,
2022-01-01,-2.51, 4.17, 5.91, 1.99, 1.49, 7.19, suppf,
2022-01-02,-3.36, 4.51, 3.02, 2.00, 1.49, 7.23, suppf,
2022-01-03,-0.39, 0.89, 3.53, 2.04, 1.51, 7.33, suppf,
2022-01-04,-1.21, 1.82, -15.75, 2.00, 1.49, 7.20, suppf,
2022-01-05,-1.00, 0.76, -7.45, 2.01, 1.49, 7.26, suppf,
2022-01-06,-2.85, 1.54, 2.81, 2.01, 1.51, 7.29, suppf,
2022-01-07,-1.45, 2.88, 0.84, 2.03, 1.51, 7.33, suppf,
2022-01-08,-0.73, 3.77, 0.83, 2.00, 1.50, 7.23, suppf,
2022-01-09,-1.30, 4.00, -6.43, 2.14, 1.55, 7.65, suppf,
2022-01-10,-0.15, 3.93, -6.56, 2.01, 1.50, 7.30, suppf,
2022-01-11,-2.78, 3.61, -2.68, 2.02, 1.52, 7.38, suppf,
2022-01-12,-1.65, 6.03, -8.02, 1.99, 1.50, 7.24, suppf,
2022-01-13,-1.00, 2.66, -1.18, 2.02, 1.52, 7.41, suppf,
2022-01-14,-1.32, 5.30, -1.64, 1.98, 1.49, 7.19, suppf,
2022-01-15,-2.00, 4.99, -6.27, 1.98, 1.49, 7.18, suppf,
2022-01-16,-2.26, 5.78, 1.02, 1.97, 1.48, 7.14, suppf,
2022-01-17,-1.50, 5.27, -2.24, 1.99, 1.49, 7.25, suppf,
2022-01-18,-1.29, 4.39, -4.30, 1.98, 1.49, 7.19, suppf,
2022-01-19,-1.03, 4.81, -6.02, 1.99, 1.49, 7.20, suppf,
2022-01-20,-2.08, 4.94, -10.50, 2.01, 1.50, 7.30, suppf,
2022-01-21,-1.54, 4.37, -4.30, 2.00, 1.50, 7.24, suppf,
2022-01-22,-2.48, 4.84, -3.96, 1.98, 1.48, 7.14, suppf,
2022-01-23,-1.04, 4.96, -4.44, 1.99, 1.49, 7.20, suppf,
2022-01-24,-1.44, 4.93, 0.05, 1.99, 1.48, 7.16, suppf,
2022-01-25,-1.30, 4.01, -4.93, 2.01, 1.50, 7.30, suppf,
2022-01-26,-2.09, 5.05, -1.78, 1.99, 1.49, 7.23, suppf,
2022-01-27,-2.10, 5.05, -3.15, 1.94, 1.47, 7.09, suppf,
2022-01-28,-2.06, 4.73, -5.27, 1.94, 1.47, 7.06, suppf,
2022-01-29,-1.70, 3.26, -8.16, 1.95, 1.48, 7.15, suppf,
2022-01-30,-2.79, 3.28, -2.34, 1.95, 1.47, 7.11, suppf,
2022-01-31,-3.30, 5.11, -2.61, 1.97, 1.48, 7.18, suppf,
2022-02-01,-7.06, 3.26, -1.45, 1.94, 1.47, 7.10, suppf,
2022-02-02,1.00, 3.30, -0.94, 1.98, 1.50, 7.18, suppf,
2022-02-03,-2.03, 4.17, -9.63, 1.94, 1.47, 7.08, suppf,
2022-02-04,-2.31, 4.89, -8.96, 1.95, 1.48, 7.12, suppf,
2022-02-05,-1.59, 4.48, -13.11, 1.94, 1.47, 7.07, suppf,
2022-02-06,-2.22, 4.39, -5.31, 1.96, 1.50, 7.26, suppf,
2022-02-07,-1.66, 4.07, -8.10, 1.98, 1.51, 7.36, suppf,
2022-02-08,-1.76, 5.13, -7.88, 1.96, 1.50, 7.20, suppf,
2022-02-09,-4.18, 3.78, -2.06, 1.98, 1.52, 7.28, suppf,
2022-02-10,-1.20, 3.38, -6.49, 1.94, 1.48, 7.09, suppf,
2022-02-11,-2.30, 4.27, -1.29, 1.93, 1.47, 7.04, suppf,
2022-02-12,-2.73, 5.36, 1.74, 1.94, 1.47, 7.07, suppf,
2022-02-13,-2.54, 4.46, -3.05, 1.98, 1.50, 7.16, suppf,
2022-02-14,-2.67, 4.11, -8.38, 1.97, 1.49, 7.19, suppf,
2022-02-15,-1.17, 3.19, 4.63, 2.02, 1.51, 7.25, suppf,
2022-02-16,-0.78, 1.26, -1.34, 1.96, 1.49, 7.18, suppf,
2022-02-17,-3.16, 3.58, 1.65, 1.94, 1.48, 7.08, suppf,
2022-02-18,-1.98, 5.45, 0.32, 1.99, 1.50, 7.24, suppf,
2022-02-19,-2.37, 4.21, -2.60, 1.94, 1.49, 7.10, suppf,
2022-02-20,-3.46, 4.39, -5.09, 1.94, 1.47, 7.07, suppf,
2022-02-21,-1.58, 0.90, -3.72, 1.94, 1.47, 7.07, suppf,
2022-02-22,-2.05, 2.99, -2.56, 1.93, 1.47, 7.08, suppf,
2022-02-23,-2.46, 3.67, -2.99, 1.93, 1.46, 7.04, suppf,
2022-02-24,-2.31, 3.45, 0.97, 2.04, 1.51, 7.35, suppf,
2022-02-25,-2.19, 3.87, -5.37, 2.06, 1.52, 7.41, suppf,
2022-02-26,-2.15, 3.73, 1.26, 1.96, 1.47, 7.12, suppf,
2022-02-27,-3.53, 7.39, 1.02, 1.96, 1.47, 7.16, suppf,
2022-02-28,-2.56, 3.85, -0.47, 1.96, 1.48, 7.18, suppf,
2022-03-01,-1.79, 4.60, 1.74, 1.97, 1.48, 7.20, suppf,
2022-03-02,-2.46, 4.48, -3.78, 1.93, 1.46, 7.02, suppf,
2022-03-03,-1.50, 3.95, 0.48, 1.94, 1.47, 7.08, suppf,
2022-03-04,-0.94, 3.70, -2.49, 1.93, 1.46, 7.04, suppf,
2022-03-05,-1.75, 2.01, -2.16, 1.93, 1.47, 7.04, suppf,
2022-03-06,-0.47, 3.82, -5.42, 1.95, 1.47, 7.09, suppf,
2022-03-07,-2.57, 3.77, -4.99, 1.93, 1.46, 7.03, suppf,
2022-03-08,-1.29, 2.01, -0.04, 1.93, 1.46, 7.01, suppf,
2022-03-09,-2.71, 2.61, -3.20, 1.93, 1.47, 7.05, suppf,
2022-03-10,-0.43, 2.86, -1.17, 2.00, 1.48, 7.15, suppf,
2022-03-11,-2.08, 3.66, -4.02, 2.02, 1.48, 7.19, suppf,
2022-03-12,-1.93, 4.86, 3.52, 1.98, 1.49, 7.28, suppf,
2022-03-13,-2.18, 2.17, 2.34, 1.94, 1.46, 7.06, suppf,
2022-03-14,-0.21, 3.41, -6.02, 1.94, 1.46, 7.06, suppf,
2022-03-15,-1.83, -0.14, 0.76, 1.94, 1.47, 7.12, suppf,
2022-03-16,-2.82, 3.33, 5.23, 1.93, 1.46, 7.05, suppf,
2022-03-17,-1.67, 2.66, 2.33, 1.97, 1.51, 7.27, suppf,
2022-03-18,-2.58, 3.34, 0.30, 1.95, 1.51, 7.19, suppf,
2022-03-19,-3.65, 2.16, 4.88, 1.95, 1.47, 7.08, suppf,
2022-03-20,-1.64, 3.77, -1.00, 1.93, 1.46, 7.01, suppf,
2022-03-21,-1.93, 3.85, -1.44, 1.93, 1.47, 7.06, suppf,
2022-03-22,-2.33, 4.30, -1.01, 1.93, 1.46, 7.04, suppf,
2022-03-23,-2.73, 3.77, -1.96, 1.95, 1.48, 7.16, suppf,
2022-03-24,-2.81, 4.63, 4.80, 1.96, 1.49, 7.16, suppf,
2022-03-25,-2.39, 3.77, 1.24, 1.97, 1.50, 7.23, suppf,
2022-03-26,-3.30, 4.14, 6.28, 1.93, 1.47, 7.07, suppf,
2022-03-27,-2.13, 4.31, 7.74, 1.94, 1.47, 7.09, suppf,
2022-03-28,-2.80, 1.82, 8.26, 2.00, 1.50, 7.25, suppf,
2022-03-29,-0.71, 3.51, 4.90, 1.93, 1.46, 7.03, suppf,
2022-03-30,-1.16, 1.70, 2.78, 1.94, 1.47, 7.10, suppf,
2022-03-31,-2.95, 2.21, 11.46, 1.94, 1.47, 7.07, suppf,
2022-04-01,-1.36, 2.02, 8.78, 1.93, 1.46, 7.05, suppf,
2022-04-02,-1.34, 1.91, -2.03, 1.93, 1.47, 7.06, suppf,
2022-04-03,-1.53, 1.37, 2.86, 1.91, 1.46, 7.01, suppf,
2022-04-04,-2.53, 1.19, 0.04, 1.94, 1.46, 7.07, suppf,
2022-04-05,-2.47, 0.92, 5.51, 1.94, 1.46, 7.08, suppf,
2022-04-06,-1.85, 2.15, 4.11, 1.93, 1.47, 7.08, suppf,
2022-04-07,-2.48, 2.06, 4.59, 1.93, 1.47, 7.07, suppf,
2022-04-08,-2.62, 2.10, 13.48, 2.00, 1.52, 7.31, suppf,
2022-04-09,-3.73, 1.09, 7.25, 1.94, 1.47, 7.10, suppf,
2022-04-10,-2.24, 1.13, 8.13, 1.94, 1.47, 7.12, suppf,
2022-04-11,-1.35, -0.43, 2.18, 1.98, 1.54, 7.39, suppf,
2022-04-12,-2.24, -0.21, 6.03, 1.95, 1.47, 7.14, suppf,
2022-04-13,-2.11, 2.50, -1.85, 1.93, 1.47, 7.11, suppf,
2022-04-14,-2.13, 0.31, 6.89, 1.93, 1.47, 7.07, suppf,
2022-04-15,-0.76, 1.15, 0.09, 1.95, 1.50, 7.17, suppf,
2022-04-16,-1.72, 0.23, 3.13, 1.96, 1.51, 7.22, suppf,
2022-04-17,-1.94, 1.83, -6.94, 1.93, 1.46, 7.04, suppf,
2022-04-18,-0.88, 0.32, 2.22, 1.94, 1.46, 7.05, suppf,
2022-04-19,-1.75, 1.06, 2.62, 1.93, 1.46, 7.03, suppf,
2022-04-20,0.01, -0.25, 7.79, 1.95, 1.47, 7.10, suppf,
2022-04-21,-1.66, -0.27, 5.36, 1.99, 1.48, 7.22, suppf,
2022-04-22,0.00, 1.33, 2.36, 1.97, 1.47, 7.16, suppf,
2022-04-23,-2.22, 2.09, -2.64, 1.94, 1.47, 7.12, suppf,
2022-04-24,-1.81, 2.20, 0.47, 1.94, 1.47, 7.11, suppf,
2022-04-25,-3.53, 2.39, 5.83, 1.94, 1.47, 7.08, suppf,
2022-04-26,-2.51, 0.89, -0.50, 1.94, 1.47, 7.06, suppf,
2022-04-27,-2.14, 1.05, -0.05, 2.06, 1.51, 7.20, suppf,
2022-04-28,-2.34, 1.74, 2.18, 2.05, 1.49, 7.14, suppf,
2022-04-29,-1.07, 3.36, -0.91, 1.93, 1.46, 7.03, suppf,
2022-04-30,-0.38, -2.01, -0.85, 1.94, 1.47, 7.07, suppf,
2022-05-01,-2.12, 1.65, -1.41, 1.95, 1.46, 7.05, suppf,
2022-05-02,-0.79, 1.77, -3.29, 2.04, 1.54, 7.50, suppf,
2022-05-03,-1.59, 2.28, 4.71, 2.02, 1.52, 7.27, suppf,
2022-05-04,-1.35, 1.45, 2.15, 2.03, 1.53, 7.31, suppf,
2022-05-05,-0.81, 1.60, 6.25, 1.94, 1.47, 7.07, suppf,
2022-05-06,-2.13, -0.22, 8.19, 1.99, 1.48, 7.24, suppf,
2022-05-07,-3.40, 0.82, 3.52, 1.97, 1.47, 7.16, suppf,
2022-05-08,-3.83, 0.42, 5.28, 1.94, 1.46, 7.06, suppf,
2022-05-09,-2.39, 1.79, 0.87, 1.93, 1.46, 7.04, suppf,
2022-05-10,-1.82, 0.48, 2.86, 1.93, 1.46, 7.03, suppf,
2022-05-11,-2.09, 0.74, -2.31, 1.94, 1.46, 7.02, suppf,
2022-05-12,-1.77, 1.23, -2.13, 1.94, 1.46, 7.02, suppf,
2022-05-13,-2.15, 1.75, 6.86, 1.94, 1.47, 7.10, suppf,
2022-05-14,-1.59, 1.96, 1.25, 1.93, 1.46, 7.02, suppf,
2022-05-15,-2.57, 1.03, 2.36, 1.95, 1.48, 7.14, suppf,
2022-05-16,-1.21, 1.79, -4.89, 1.93, 1.46, 7.04, suppf,
2022-05-17,-2.17, 2.14, -2.97, 1.94, 1.48, 7.13, suppf,
2022-05-18,-0.87, 0.46, -3.32, 1.93, 1.47, 7.07, suppf,
2022-05-19,0.83, 0.68, 2.44, 1.98, 1.52, 7.24, suppf,
2022-05-20,-0.91, 0.43, 6.11, 1.98, 1.51, 7.20, suppf,
2022-05-21,1.07, 1.54, -2.18, 1.95, 1.48, 7.13, suppf,
2022-05-22,1.16, 1.74, -4.09, 1.95, 1.49, 7.23, suppf,
2022-05-23,-0.77, 3.19, -2.78, 1.96, 1.48, 7.18, suppf,
2022-05-24,1.59, 4.18, -2.15, 1.94, 1.48, 7.16, suppf,
2022-05-25,-1.00, 1.74, -1.64, 1.91, 1.46, 7.05, suppf,
2022-05-26,-2.12, 0.96, 5.05, 1.97, 1.48, 7.10, suppf,
2022-05-27,-1.21, 1.12, -1.59, 1.96, 1.47, 7.04, suppf,
2022-05-28,-1.20, 2.25, 4.82, 1.90, 1.46, 7.01, suppf,
2022-05-29,-0.46, -1.73, 2.77, 1.88, 1.45, 6.94, suppf,
2022-05-30,-2.42, 1.96, -2.76, 1.91, 1.47, 7.13, suppf,
2022-05-31,-1.48, 1.79, 0.70, 1.91, 1.47, 7.12, suppf,
2022-06-01,-1.21, 0.74, -5.13, 1.91, 1.46, 7.03, suppf,
2022-06-02,-1.25, 1.44, -0.47, 1.94, 1.49, 7.19, suppf,
2022-06-03,-2.13, 1.27, -5.61, 1.97, 1.51, 7.34, suppf,
2022-06-04,-2.19, 2.42, 5.10, 1.89, 1.45, 6.97, suppf,
2022-06-05,-0.33, 2.00, 6.52, 1.98, 1.51, 7.42, suppf,
2022-06-06,-2.67, 1.48, 0.88, 1.89, 1.44, 6.94, suppf,
2022-06-07,0.26, 1.23, 1.11, 1.92, 1.48, 7.17, suppf,
2022-06-08,-1.79, 1.70, 1.36, 1.93, 1.49, 7.23, suppf,
2022-06-09,-2.01, 3.63, 3.67, 1.89, 1.46, 7.04, suppf,
2022-06-10,-1.86, 1.44, -0.37, 1.91, 1.47, 7.08, suppf,
2022-06-11,-1.05, 0.39, -4.87, 1.90, 1.46, 7.03, suppf,
2022-06-12,-0.67, 2.28, -5.23, 1.94, 1.52, 7.27, suppf,
2022-06-13,-0.14, 1.90, -1.65, 1.87, 1.45, 6.93, suppf,
2022-06-14,-0.84, 1.94, -2.78, 1.88, 1.45, 6.96, suppf,
2022-06-15,-1.04, 1.77, 3.02, 1.92, 1.48, 7.17, suppf,
2022-06-16,-0.99, 2.51, -1.38, 1.92, 1.46, 7.11, suppf,
2022-06-17,-1.60, 2.32, -0.69, 1.90, 1.46, 7.02, suppf,
2022-06-18,-1.11, 1.92, -0.70, 1.88, 1.44, 6.91, suppf,
2022-06-19,-1.31, 1.44, -9.59, 1.92, 1.46, 7.09, suppf,
2022-06-20,-0.42, 2.34, -0.51, 1.90, 1.47, 7.05, suppf,
2022-06-21,-2.43, 2.09, -13.42, 1.90, 1.45, 7.00, suppf,
2022-06-22,-0.24, 1.58, -0.46, 1.90, 1.44, 6.94, suppf,
2022-06-23,1.05, -0.02, -4.97, 1.91, 1.47, 7.07, suppf,
2022-06-24,-1.12, 1.17, 5.47, 1.95, 1.50, 7.23, suppf,
2022-06-25,-0.95, 1.84, -8.01, 1.89, 1.45, 6.98, suppf,
2022-06-26,-2.14, 3.04, -2.39, 1.90, 1.47, 7.08, suppf,
2022-06-27,-1.94, 2.27, -7.97, 1.92, 1.46, 7.04, suppf,
2022-06-28,0.17, 1.58, -11.08, 1.91, 1.46, 7.04, suppf,
2022-06-29,-1.12, 3.22, -5.35, 1.90, 1.45, 6.97, suppf,
2022-06-30,0.22, 3.94, -8.15, 1.92, 1.48, 7.17, suppf,
2022-07-01,-1.11, 3.36, -0.83, 1.89, 1.46, 6.98, suppf,
2022-07-02,0.56, 0.41, -8.20, 1.91, 1.47, 7.10, suppf,
2022-07-03,-1.51, 2.14, 0.68, 1.90, 1.46, 7.03, suppf,
2022-07-04,-0.03, 2.09, -0.29, 2.04, 1.52, 7.48, suppf,
2022-07-05,-1.76, 2.40, -8.18, 2.04, 1.52, 7.46, suppf,
2022-07-06,-0.34, 0.29, -10.81, 1.98, 1.48, 7.28, suppf,
2022-07-07,-0.79, 1.18, 0.49, 1.90, 1.46, 7.05, suppf,
2022-07-08,-1.19, 2.74, -1.50, 1.91, 1.47, 7.11, suppf,
2022-07-09,-1.02, 2.57, -4.36, 1.89, 1.46, 7.02, suppf,
2022-07-10,-0.18, 2.65, -8.87, 1.92, 1.47, 7.14, suppf,
2022-07-11,-1.47, 2.62, 0.17, 1.89, 1.45, 6.98, suppf,
2022-07-12,-1.38, 2.27, -0.79, 1.90, 1.45, 7.00, suppf,
2022-07-13,-1.66, 3.70, -4.82, 1.92, 1.48, 7.18, suppf,
2022-07-14,-2.35, 2.16, 0.00, 1.94, 1.46, 7.09, suppf,
2022-07-15,-0.66, 2.72, -7.77, 1.95, 1.47, 7.14, suppf,
2022-07-16,-1.31, 2.86, -9.47, 1.91, 1.47, 7.10, suppf,
2022-07-17,-2.49, 4.62, -0.36, 1.89, 1.45, 6.98, suppf,
2022-07-18,-0.25, 3.99, -1.34, 1.89, 1.45, 6.96, suppf,
2022-07-19,0.06, 3.12, -2.17, 1.91, 1.46, 7.03, suppf,
2022-07-20,0.36, 1.58, -3.73, 1.89, 1.46, 6.98, suppf,
2022-07-21,-1.08, 0.76, -4.73, 1.88, 1.46, 6.99, suppf,
2022-07-22,-1.12, 0.58, -1.91, 1.91, 1.47, 7.12, suppf,
2022-07-23,1.41, 4.27, 1.91, 1.91, 1.47, 7.12, suppf,
2022-07-24,-0.53, 3.18, 3.22, 1.89, 1.46, 7.00, suppf,
2022-07-25,-2.89, 2.75, 4.86, 1.89, 1.47, 7.06, suppf,
2022-07-26,-1.20, 2.83, 1.55, 1.89, 1.46, 7.02, suppf,
2022-07-27,-2.31, 3.05, -0.10, 1.89, 1.45, 6.99, suppf,
2022-07-28,-2.48, 3.33, -3.11, 1.91, 1.46, 7.05, suppf,
2022-07-29,-1.49, 2.96, -5.42, 1.92, 1.49, 7.10, suppf,
2022-07-30,-1.25, 3.36, -0.57, 1.89, 1.47, 7.03, suppf,
2022-07-31,-1.28, 2.17, 0.81, 1.89, 1.45, 6.95, suppf,
2022-08-01,-2.23, 3.02, -5.16, 1.89, 1.46, 7.00, suppf,
2022-08-02,-1.44, 2.82, 2.79, 1.93, 1.52, 7.31, suppf,
2022-08-03,-1.42, 1.85, 2.94, 1.93, 1.50, 7.22, suppf,
2022-08-04,-2.22, 3.25, -2.47, 1.93, 1.51, 7.21, suppf,
2022-08-05,-0.12, 1.95, -6.05, 1.88, 1.45, 6.96, suppf,
2022-08-06,-0.49, 2.44, -0.15, 1.90, 1.48, 7.11, suppf,
2022-08-07,-1.63, 1.91, 1.08, 1.88, 1.45, 6.92, suppf,
2022-08-08,-2.79, 1.79, 2.36, 1.90, 1.46, 7.06, suppf,
2022-08-09,-0.87, 1.70, 5.89, 1.89, 1.45, 6.96, suppf,
2022-08-10,-1.78, 2.00, 4.24, 1.89, 1.46, 7.00, suppf,
2022-08-11,-1.98, 3.27, 0.38, 1.92, 1.51, 7.09, suppf,
2022-08-12,-1.60, 2.91, 5.32, 1.91, 1.49, 7.03, suppf,
2022-08-13,-2.01, 2.78, 0.88, 1.89, 1.46, 6.99, suppf,
2022-08-14,-1.99, 2.20, -0.34, 1.89, 1.46, 6.99, suppf,
2022-08-15,-0.89, 1.82, 3.69, 1.89, 1.46, 7.02, suppf,